Location: Einbach
(48.3136°N, 8.1704°E)
Time: 13:23:43
(UTC+00:00)

Daily predictions for brighter satellites

Satellite Brightness Start Highest point End
(mag) Time Altitude Azimuth Time Altitude Azimuth Time Altitude Azimuth
Cosmos 1441 Rocket 3.2 20:09:58 10° N 20:13:33 61° ENE 20:17:08 10° SSE
Okean-O 3.2 20:09:31 10° S 20:13:51 57° W 20:18:13 10° NNW
Cosmos 2360 Rocket 3.4 20:09:45 10° NNW 20:14:52 33° NE 20:19:57 10° ESE
ATLAS 2AS CENTAUR R/B 3.5 20:09:52 10° NW 20:16:28 44° NE 20:22:49 10° ESE
CZ-4 R/B 4.4 20:15:51 10° WSW 20:17:08 11° W 20:18:24 10° WNW
Cosmos 2266 Rocket 4.4 20:12:00 10° SSE 20:18:00 48° E 20:24:06 10° NNE
Cosmos 1300 4.1 20:17:10 10° NNE 20:20:02 22° ENE 20:22:53 10° SE
USA 245 3.3 20:19:04 10° SSE 20:22:26 70° ENE 20:26:43 10° N
Cosmos 1674 3.3 20:19:48 10° SSW 20:23:12 53° WNW 20:26:36 10° N
Cosmos 2333 Rocket 3.3 20:18:02 10° NNW 20:23:18 35° NE 20:28:33 10° ESE
SL-16 R/B 2.4 20:18:31 10° NNW 20:24:12 67° ENE 20:29:50 10° SE
Cosmos 1515 Rocket 4.0 20:20:14 10° SSW 20:24:30 65° WNW 20:28:51 10° N
In-Cosmos 22 4.4 20:19:19 10° S 20:24:50 57° E 20:30:14 10° NNE
Cosmos 1908 3.0 20:22:25 10° N 20:26:01 90° N 20:29:38 10° S
Cosmos 1470 3.1 20:22:33 10° NNW 20:26:12 61° W 20:29:51 10° S
Cosmos 468 Rocket 4.2 20:22:18 10° NNW 20:27:32 72° WSW 20:32:41 10° SSE
Atlas Centaur 2 4.2 20:23:00 10° SW 20:28:48 21° S 20:34:35 10° SE
Cosmos 2082 Rocket 2.9 20:23:21 10° SW 20:29:01 61° WNW 20:34:41 10° NNE
IRS-1A Rocket 4.4 20:24:31 10° S 20:30:01 77° WSW 20:35:34 10° NNW
Ariane Rocket 3.1 20:25:19 10° SSE 20:30:21 66° ENE 20:35:25 10° N
Cosmos 2228 Rocket 4.1 20:28:19 10° SSE 20:32:16 30° E 20:36:16 10° NNE
SL-14 R/B 4.3 20:29:38 10° SSE 20:32:45 27° E 20:36:00 10° NNE
IRS-1C Rocket 4.4 20:29:06 10° S 20:34:19 67° WSW 20:39:34 10° NNW
RESURS DK-1 2.8 20:31:45 10° NNW 20:35:45 51° NE 20:39:23 12° SE
Okean O Rocket 4.0 20:33:06 10° SW 20:36:20 20° W 20:39:34 10° NW
ARGOS Delta rocket 4.3 20:33:28 10° S 20:37:52 54° W 20:42:12 10° NNW
Tiangong 0.0 20:36:19 10° SW 20:38:12 15° SSW 20:39:45 11° SSE
Cosmos 1869 Rocket 3.6 20:36:27 10° N 20:40:55 88° W 20:45:22 10° S
Cosmos 1346 Rocket 3.6 20:39:53 10° N 20:43:30 35° ENE 20:46:26 14° SE
Terra 1.9 20:39:54 10° S 20:44:36 79° WSW 20:49:21 10° NNW
SPOT 3 Rocket 3.6 20:40:43 10° SSE 20:45:48 81° ENE 20:51:00 10° NNW
USA 281 4.2 20:42:39 10° ESE 20:48:32 37° NE 20:54:27 10° NNW
Timation 1 Rocket 4.5 20:44:08 10° S 20:49:54 55° ESE 20:55:42 10° NE
EXPRESS MD2 1.9 20:50:22 10° WSW 20:53:08 77° SSE 20:55:18 10° ENE
Meteor 1-22 Rocket 4.3 20:49:12 10° NNW 20:54:50 83° W 21:00:32 11° S
Cosmos 2315 Rocket 4.1 20:50:07 10° N 20:56:30 72° E 21:02:15 13° SSE
Cosmos 1758 3.3 20:54:14 10° N 20:58:07 67° E 21:01:09 16° SSE
Cosmos 1741 Rocket 4.3 20:55:29 10° S 21:00:33 51° ESE 21:05:41 10° NNE
Cosmos 968 Rocket 4.0 20:59:28 12° S 21:03:44 39° ESE 21:08:33 10° NE
Landsat 4 3.9 21:00:47 13° S 21:03:45 57° WSW 21:07:09 10° NNW
Cosmos 1980 Rocket 4.5 21:03:07 10° WNW 21:06:33 17° W 21:09:59 10° SW
Cosmos 2322 Rocket 2.2 21:02:22 10° NNW 21:08:05 88° ENE 21:12:36 17° SSE
Cosmos 1356 Rocket 3.5 21:06:07 14° S 21:09:41 62° E 21:13:51 10° NNE
SeaSat 1 3.7 21:07:49 10° S 21:12:16 34° WSW 21:16:44 10° NW
Cosmos 1862 Rocket 3.7 21:11:25 16° S 21:14:47 57° E 21:19:08 10° NNE
Meteor 1-21 4.3 21:13:03 12° S 21:18:19 67° E 21:24:07 10° NNE
MOS 1 Rocket 4.2 21:14:17 10° S 21:19:29 52° W 21:24:42 10° NNW
Okean 2 4.3 21:19:14 20° SE 21:21:10 30° E 21:24:42 10° NNE
BREEZE-M DEB (TANK) 4.4 20:59:39 10° WSW 21:22:40 88° SSE 21:27:40 10° ENE
USA 234 3.4 21:16:12 10° NE 21:22:45 78° NNW 21:29:17 10° WSW
Cosmos 1400 Rocket 3.7 21:22:49 10° SSW 21:26:35 46° WNW 21:30:19 10° N
Cosmos 1455 3.1 21:24:49 10° N 21:27:59 31° ENE 21:29:35 21° ESE
SL-4 R/B 2.8 21:24:44 10° WNW 21:28:34 51° N 21:32:38 10° ENE
COSMOS 2428 4.0 21:23:44 10° NNW 21:28:49 32° NE 21:33:46 10° ESE
Meteor 2-10 Rocket 4.2 21:26:14 10° NNW 21:31:43 55° W 21:36:16 14° S
Meteor 2-20 4.5 21:26:31 10° N 21:32:43 88° W 21:37:26 18° S
Landsat 5 3.5 21:30:31 10° N 21:34:30 76° WNW 21:38:06 13° SSW
Cosmos 2219 Rocket 2.5 21:29:48 10° NNW 21:35:27 63° ENE 21:39:27 20° SE
Cosmos 1707 Rocket 3.7 21:31:38 13° SSW 21:35:35 74° W 21:40:02 10° N
ATLAS CENTAUR R/B 0.8 21:35:17 10° SSW 21:38:45 78° SE 21:42:22 10° NE
Cosmos 1315 Rocket 3.1 21:39:54 26° SSE 21:41:50 50° E 21:45:43 10° NNE
ARIANE 5 R/B 3.0 21:39:26 23° SE 21:41:54 52° ENE 21:46:08 10° N
SJ 16-02 1.3 21:39:29 21° S 21:42:15 62° ESE 21:46:32 10° NNE
Meteor 1-4 Rocket 2.0 21:41:42 35° S 21:42:46 67° E 21:45:45 10° NNE
SL-27 R/B 2.1 21:41:50 22° SSW 21:43:27 67° WNW 21:46:14 10° NNE
Okean 3 3.4 21:41:42 20° S 21:44:33 86° W 21:48:45 10° N
Cosmos 1953 2.4 21:41:57 10° N 21:45:45 59° ENE 21:47:31 29° SSE
Aureole 3 3.6 21:49:38 20° SSW 21:52:15 72° W 21:57:00 10° N
Cosmos 1300 4.2 21:51:43 10° NNW 21:54:44 26° W 21:57:03 14° SW
Cosmos 1733 Rocket 4.1 21:52:21 10° NNW 21:56:28 39° W 21:59:30 17° SSW
Nadezhda 1 Rocket 4.3 21:51:27 10° N 21:57:40 55° ENE 22:01:33 23° SE
Cosmos 2360 Rocket 2.7 21:53:36 10° NW 21:59:04 50° WSW 22:02:32 22° S
H-2A R/B 3.1 21:59:14 25° SE 22:01:25 48° ENE 22:05:32 10° N
GP-B 3.2 21:57:56 10° N 22:02:20 65° E 22:04:27 29° SSE
Cosmos 839 Rocket 4.1 21:55:52 10° NW 22:02:51 76° WSW 22:06:44 24° SSE
ATLAS 2AS CENTAUR R/B 2.9 22:00:57 10° NW 22:07:35 56° WSW 22:11:32 24° S
Cosmos 2333 Rocket 2.8 22:02:15 10° NW 22:07:44 47° WSW 22:11:07 22° S
SL-16 R/B 3.9 22:03:30 10° NW 22:07:46 22° W 22:11:42 11° SSW
Cosmos 1908 Rocket 3.5 22:04:39 10° N 22:09:02 86° WSW 22:11:05 31° S
Cosmos 1782 Rocket 3.9 22:07:20 10° N 22:11:36 53° ENE 22:13:29 30° SE
RESURS DK-1 4.4 22:10:19 10° WNW 22:13:06 18° WSW 22:14:58 14° SW
BREEZE-M DEB (TANK) 3.5 22:10:36 10° W 22:13:27 78° N 22:21:23 10° E
Okean 1-7 3.2 22:13:21 23° SSW 22:15:58 66° W 22:20:17 10° N
Atlas Centaur 2 4.4 22:11:54 10° SW 22:16:41 17° SSW 22:16:47 17° SSW
Cosmos 1408 3.1 22:22:39 31° E 22:22:44 31° E 22:25:27 10° NNE
BlueWalker 3 3.1 22:24:28 25° ESE 22:24:28 25° ESE 22:26:44 10° ENE
BREEZE-M DEB (TANK) 3.5 22:19:28 10° WNW 22:23:35 35° N 22:25:40 10° ENE
Cosmos 1242 Rocket 1.7 22:23:20 70° SSW 22:23:36 88° W 22:26:22 10° N
MINOTAUR 4 R/B 3.5 22:22:40 10° N 22:25:35 75° WNW 22:26:10 51° SW
Cosmos 1570 Rocket 4.0 22:26:24 10° NNW 22:31:47 84° WSW 22:34:28 30° SSE
Cosmos 1300 Rocket 3.5 22:27:55 10° N 22:32:14 72° E 22:33:55 36° SSE
Cosmos 2237 Rocket 3.3 22:27:26 10° NNW 22:32:43 38° NE 22:37:15 13° ESE
USA 281 3.5 22:28:55 25° S 22:32:48 58° WSW 22:39:18 10° NNW
Cosmos 2322 3.7 22:27:27 10° NNW 22:33:10 84° WSW 22:36:10 29° SSE
Cosmos 1238 4.3 22:30:08 10° N 22:33:16 88° E 22:34:07 48° S
H-2A R/B 3.7 22:31:20 10° NE 22:34:22 19° E 22:35:22 17° ESE
ALOS 2 2.8 22:32:43 32° SE 22:34:38 63° ENE 22:38:59 10° N
Cosmos 371 Rocket 4.1 22:38:28 29° SE 22:39:53 36° ESE 22:44:17 10° NE
Cosmos 2227 Rocket 4.0 22:38:36 14° ESE 22:40:15 15° E 22:43:25 10° ENE
CZ-3 Stage 3 4.4 22:13:34 10° W 22:40:25 33° SW 22:45:18 24° S
CZ-2C R/B 4.4 22:36:28 10° N 22:40:43 48° WNW 22:43:36 19° SW
CZ-4C R/B 2.6 22:42:24 29° SE 22:43:16 31° ESE 22:47:56 10° NE
BREEZE-M DEB (TANK) 3.6 22:45:04 38° ESE 22:45:04 38° ESE 22:48:42 10° ENE
Cosmos 1703 3.7 22:44:41 36° SE 22:45:24 41° E 22:48:54 10° NNE
Cosmos 1980 4.4 22:40:12 10° NNW 22:45:42 49° NE 22:49:45 18° SE
Cosmos 1709 Rocket 4.1 22:45:06 28° S 22:48:38 72° E 22:54:59 10° NNE
Spot 4 3.9 22:49:10 33° S 22:51:14 67° WSW 22:56:02 10° NNW
Cosmos 1703 Rocket 4.4 22:48:43 22° SW 22:51:16 45° WNW 22:55:34 10° N
Cosmos 2322 Rocket 4.2 22:48:00 10° WNW 22:51:19 16° W 22:54:24 11° SW
NOSS 0 Rocket 3.9 22:48:44 10° NNW 22:55:01 84° ENE 22:58:44 26° SSE
Cosmos 158 Rocket 4.0 22:50:34 10° NNW 22:55:53 75° WSW 22:58:13 34° S
Cosmos 2242 Rocket 3.6 22:57:30 37° S 22:59:18 86° E 23:03:53 10° N
Cosmos 2297 Rocket 2.8 22:57:55 29° SSE 22:59:59 40° ESE 23:05:13 10° NE
EXPRESS MD2 3.7 22:58:26 10° WNW 22:59:34 26° WNW 22:59:34 26° WNW
Meteor 2-5 Rocket 4.0 22:57:47 30° SSE 23:00:39 59° E 23:06:24 10° NNE
Cosmos 1455 4.0 22:59:43 10° NW 23:02:11 18° W 23:03:18 16° WSW
Cosmos 2208 Rocket 4.1 22:58:39 10° NNW 23:03:46 60° WSW 23:05:55 34° S
GEOS 3 Rocket 4.3 23:00:16 10° NE 23:04:57 34° ESE 23:06:13 30° SSE
Cosmos 836 Rocket 4.5 22:59:49 10° NNW 23:05:01 71° WSW 23:07:15 34° S
USA 234 4.4 22:59:11 10° ENE 23:05:21 45° N 23:11:29 10° W
Cosmos 1892 4.0 23:06:43 23° ESE 23:07:16 24° E 23:10:08 10° NE
SL-4 R/B 2.1 23:03:34 10° WNW 23:07:38 78° NNE 23:11:56 10° ESE
Cosmos 773 Rocket 4.0 23:02:50 10° NNW 23:08:00 78° ENE 23:10:31 31° SSE
COSMOS 2428 3.0 23:07:48 10° NW 23:13:20 53° WSW 23:15:45 31° S
CENTAUR R/B 3.7 23:12:45 19° SE 23:14:28 22° ESE 23:19:15 10° ENE
Cosmos 2098 Rocket 4.1 23:08:16 10° N 23:14:54 83° E 23:18:28 29° SSE
COSMOS 2455 2.8 23:12:16 29° SSW 23:15:29 72° ESE 23:21:31 10° NE
NOSS 8 (H) 4.3 23:15:28 57° S 23:15:59 70° SE 23:19:03 10° NE
ATLAS CENTAUR R/B 3.9 23:14:29 10° WNW 23:16:53 17° NNW 23:19:21 10° N
Cosmos 1503 Rocket 4.2 23:15:43 34° S 23:17:55 61° ESE 23:23:10 10° NNE
Cosmos 2219 Rocket 3.7 23:14:31 10° NW 23:18:55 24° WSW 23:21:08 19° SW
Cosmos 1777 Rocket 4.3 23:18:39 33° SSE 23:20:42 53° ESE 23:25:51 10° NNE
SJ 16-02 3.8 23:18:05 10° W 23:21:01 18° NW 23:24:00 10° N
PSLV R/B 3.5 23:27:22 10° NNE 23:31:37 80° WNW 23:33:06 40° SSW
Cosmos 332 Rocket 4.5 23:31:18 31° SSE 23:32:56 42° ESE 23:37:32 10° NE
Cosmos 304 Rocket 3.7 23:31:07 36° SSW 23:33:06 89° ESE 23:37:53 10° NNE
Cosmos 2263 Rocket 4.1 23:33:49 13° SE 23:36:07 16° E 23:39:28 10° ENE
H-2A R/B 4.3 23:35:13 17° WSW 23:36:34 20° W 23:39:44 10° NW
Cosmos 1174 4.3 23:32:27 10° NNW 23:37:35 69° NE 23:39:54 26° SE
Okean 1 Rocket 3.4 23:36:57 10° N 23:41:15 57° ENE 23:43:05 31° SE
Cosmos 1486 Rocket 4.5 23:41:55 23° SW 23:44:59 55° WNW 23:50:07 10° NNE
Cosmos 2181 Rocket 4.0 23:40:12 10° NNW 23:46:24 72° W 23:49:33 30° S
Cosmos 1825 1.9 23:47:12 54° SSE 23:47:46 66° E 23:51:11 10° NNE
Helios 1A Rocket 4.5 23:46:37 15° ESE 23:48:59 27° ENE 23:52:13 10° N
